Time,TemperatureF,DewpointF,PressureIn,WindDirection,WindDirectionDegrees,WindSpeedMPH,WindSpeedGustMPH,Humidity,HourlyPrecipIn,Conditions,Clouds,dailyrainin,SoftwareType,DateUTC
2013-02-13 00:04:00,20.1,4.0,23.68,NNE,22,2.0,2.5,49,0.00,,---,0.00,VWS V14.01,2013-02-13 08:04:00,
2013-02-13 00:10:00,19.8,4.1,23.68,NNE,22,0.0,0.0,50,0.00,,---,0.00,VWS V14.01,2013-02-13 08:10:00,
2013-02-13 00:16:00,19.6,4.0,23.68,NNE,22,0.0,0.0,50,0.00,,---,0.00,VWS V14.01,2013-02-13 08:16:00,
2013-02-13 00:21:00,19.6,4.0,23.68,NNE,22,0.0,0.0,50,0.00,,---,0.00,VWS V14.01,2013-02-13 08:21:00,
2013-02-13 00:26:00,19.4,4.2,23.68,NNE,22,0.0,0.0,51,0.00,,---,0.00,VWS V14.01,2013-02-13 08:26:00,
2013-02-13 00:31:00,19.4,4.2,23.68,NNE,22,0.0,0.0,51,0.00,,---,0.00,VWS V14.01,2013-02-13 08:31:00,
2013-02-13 00:37:00,19.0,3.9,23.68,NNE,22,0.0,0.0,51,0.00,,---,0.00,VWS V14.01,2013-02-13 08:37:00,
2013-02-13 00:42:00,18.7,3.6,23.68,WSW,248,1.3,2.0,51,0.00,,---,0.00,VWS V14.01,2013-02-13 08:42:00,
2013-02-13 00:47:00,18.1,3.5,23.68,WNW,292,0.0,0.9,52,0.00,,---,0.00,VWS V14.01,2013-02-13 08:47:00,
2013-02-13 00:53:00,17.6,3.4,23.68,North,0,2.2,2.2,53,0.00,,---,0.00,VWS V14.01,2013-02-13 08:53:00,
2013-02-13 00:58:00,17.4,3.2,23.68,North,0,1.1,2.5,53,0.00,,---,0.00,VWS V14.01,2013-02-13 08:58:00,
2013-02-13 01:03:00,17.4,3.6,23.68,NNE,22,1.1,2.0,54,0.00,,---,0.00,VWS V14.01,2013-02-13 09:03:00,
2013-02-13 01:08:00,17.4,3.6,23.68,WSW,248,2.2,3.1,54,0.00,,---,0.00,VWS V14.01,2013-02-13 09:08:00,
2013-02-13 01:13:00,17.6,3.8,23.68,South,180,0.9,2.0,54,0.00,,---,0.00,VWS V14.01,2013-02-13 09:13:00,
2013-02-13 01:18:00,17.8,4.0,23.68,SSW,202,0.0,0.0,54,0.00,,---,0.00,VWS V14.01,2013-02-13 09:18:00,
2013-02-13 01:23:00,17.6,3.8,23.68,ENE,68,2.0,2.0,54,0.00,,---,0.00,VWS V14.01,2013-02-13 09:23:00,
2013-02-13 01:28:00,17.2,3.9,23.68,ENE,68,2.0,2.5,55,0.00,,---,0.00,VWS V14.01,2013-02-13 09:28:00,
2013-02-13 01:33:00,17.6,4.2,23.68,NNE,22,0.0,1.3,55,0.00,,---,0.00,VWS V14.01,2013-02-13 09:33:00,
2013-02-13 01:38:00,17.6,4.2,23.68,East,90,2.0,2.2,55,0.00,,---,0.00,VWS V14.01,2013-02-13 09:38:00,
2013-02-13 01:43:00,17.8,4.4,23.68,South,180,0.0,2.7,55,0.00,,---,0.00,VWS V14.01,2013-02-13 09:43:00,
2013-02-13 01:49:00,18.0,4.5,23.65,SW,225,1.1,2.0,55,0.00,,---,0.00,VWS V14.01,2013-02-13 09:49:00,
2013-02-13 01:54:00,17.6,4.2,23.65,NNW,338,0.0,1.1,55,0.00,,---,0.00,VWS V14.01,2013-02-13 09:54:00,
2013-02-13 01:59:00,17.2,3.9,23.65,WSW,248,0.0,0.0,55,0.00,,---,0.00,VWS V14.01,2013-02-13 09:59:00,
2013-02-13 02:04:00,17.1,4.1,23.65,SE,135,2.7,3.1,56,0.00,,---,0.00,VWS V14.01,2013-02-13 10:04:00,
2013-02-13 02:09:00,17.4,4.4,23.65,SSE,158,2.2,2.2,56,0.00,,---,0.00,VWS V14.01,2013-02-13 10:09:00,
2013-02-13 02:14:00,17.4,4.4,23.65,West,270,1.1,2.9,56,0.00,,---,0.00,VWS V14.01,2013-02-13 10:14:00,
2013-02-13 02:19:00,17.1,4.1,23.65,NNE,22,0.0,2.2,56,0.00,,---,0.00,VWS V14.01,2013-02-13 10:19:00,
2013-02-13 02:24:00,16.9,3.9,23.65,NE,45,0.0,0.0,56,0.00,,---,0.00,VWS V14.01,2013-02-13 10:24:00,
2013-02-13 02:29:00,16.5,3.6,23.65,NNE,22,2.5,2.5,56,0.00,,---,0.00,VWS V14.01,2013-02-13 10:29:00,
2013-02-13 02:34:00,16.2,3.2,23.65,North,0,3.4,3.4,56,0.00,,---,0.00,VWS V14.01,2013-02-13 10:34:00,
2013-02-13 02:39:00,16.5,4.0,23.65,NE,45,2.0,2.5,57,0.00,,---,0.00,VWS V14.01,2013-02-13 10:39:00,
2013-02-13 02:44:00,16.7,4.1,23.65,NE,45,2.5,2.5,57,0.00,,---,0.00,VWS V14.01,2013-02-13 10:44:00,
2013-02-13 02:49:00,16.7,4.1,23.65,ENE,68,2.9,3.1,57,0.00,,---,0.00,VWS V14.01,2013-02-13 10:49:00,
2013-02-13 02:54:00,16.9,4.7,23.65,SSE,158,1.3,2.5,58,0.00,,---,0.00,VWS V14.01,2013-02-13 10:54:00,
2013-02-13 02:59:00,16.9,4.3,23.65,SW,225,1.6,1.6,57,0.00,,---,0.00,VWS V14.01,2013-02-13 10:59:00,
2013-02-13 03:04:00,16.3,3.8,23.65,NNE,22,1.6,1.6,57,0.00,,---,0.00,VWS V14.01,2013-02-13 11:04:00,
2013-02-13 03:09:00,16.5,4.0,23.65,SE,135,0.0,2.0,57,0.00,,---,0.00,VWS V14.01,2013-02-13 11:09:00,
2013-02-13 03:14:00,16.3,3.8,23.65,ESE,112,2.5,2.5,57,0.00,,---,0.00,VWS V14.01,2013-02-13 11:14:00,
2013-02-13 03:19:00,16.5,4.3,23.65,East,90,1.1,2.0,58,0.00,,---,0.00,VWS V14.01,2013-02-13 11:19:00,
2013-02-13 03:24:00,16.5,4.3,23.65,SSW,202,2.0,2.0,58,0.00,,---,0.00,VWS V14.01,2013-02-13 11:24:00,
2013-02-13 03:29:00,16.5,4.3,23.65,WNW,292,0.0,1.3,58,0.00,,---,0.00,VWS V14.01,2013-02-13 11:29:00,
2013-02-13 03:34:00,16.2,4.0,23.65,SSE,158,0.0,1.6,58,0.00,,---,0.00,VWS V14.01,2013-02-13 11:34:00,
2013-02-13 03:39:00,16.0,3.8,23.65,NE,45,0.0,0.0,58,0.00,,---,0.00,VWS V14.01,2013-02-13 11:39:00,
2013-02-13 03:44:00,15.8,3.7,23.65,NE,45,0.0,0.0,58,0.00,,---,0.00,VWS V14.01,2013-02-13 11:44:00,
2013-02-13 03:49:00,15.6,3.8,23.65,NE,45,3.6,3.6,59,0.00,,---,0.00,VWS V14.01,2013-02-13 11:49:00,
2013-02-13 03:54:00,16.0,4.2,23.65,NNE,22,1.6,2.0,59,0.00,,---,0.00,VWS V14.01,2013-02-13 11:54:00,
2013-02-13 03:59:00,16.2,4.4,23.65,NNE,22,2.0,2.0,59,0.00,,---,0.00,VWS V14.01,2013-02-13 11:59:00,
2013-02-13 04:04:00,16.3,4.9,23.65,ESE,112,1.1,2.0,60,0.00,,---,0.00,VWS V14.01,2013-02-13 12:04:00,
2013-02-13 04:09:00,16.5,5.1,23.65,SE,135,0.0,0.0,60,0.00,,---,0.00,VWS V14.01,2013-02-13 12:09:00,
2013-02-13 04:14:00,16.5,4.7,23.65,NW,315,0.9,1.3,59,0.00,,---,0.00,VWS V14.01,2013-02-13 12:14:00,
2013-02-13 04:19:00,16.2,4.4,23.65,NNW,338,0.0,0.9,59,0.00,,---,0.00,VWS V14.01,2013-02-13 12:19:00,
2013-02-13 04:24:00,16.2,4.7,23.65,NNE,22,0.0,2.0,60,0.00,,---,0.00,VWS V14.01,2013-02-13 12:24:00,
2013-02-13 04:29:00,16.3,4.5,23.65,NNE,22,1.3,2.0,59,0.00,,---,0.00,VWS V14.01,2013-02-13 12:29:00,
2013-02-13 04:34:00,16.5,5.1,23.65,NNE,22,0.0,0.0,60,0.00,,---,0.00,VWS V14.01,2013-02-13 12:34:00,
2013-02-13 04:39:00,16.9,5.8,23.65,NNE,22,2.7,2.7,61,0.00,,---,0.00,VWS V14.01,2013-02-13 12:39:00,
2013-02-13 04:44:00,17.2,6.1,23.65,NE,45,3.6,3.6,61,0.00,,---,0.00,VWS V14.01,2013-02-13 12:44:00,
2013-02-13 04:49:00,18.1,7.7,23.65,NNE,22,1.6,1.6,63,0.00,,---,0.00,VWS V14.01,2013-02-13 12:49:00,
2013-02-13 04:54:00,18.5,7.7,23.65,WSW,248,1.3,2.7,62,0.00,,---,0.00,VWS V14.01,2013-02-13 12:54:00,
2013-02-13 04:59:00,18.3,7.1,23.65,NNE,22,0.0,1.3,61,0.00,,---,0.00,VWS V14.01,2013-02-13 12:59:00,
2013-02-13 05:04:00,18.5,7.3,23.65,NNE,22,1.6,3.1,61,0.00,,---,0.00,VWS V14.01,2013-02-13 13:04:00,
2013-02-13 05:09:00,19.2,8.0,23.65,NNE,22,2.9,2.9,61,0.00,,---,0.00,VWS V14.01,2013-02-13 13:09:00,
2013-02-13 05:14:00,19.2,8.0,23.65,SW,225,1.1,2.0,61,0.00,,---,0.00,VWS V14.01,2013-02-13 13:14:00,
2013-02-13 05:19:00,18.9,7.3,23.65,NNW,338,0.0,1.1,60,0.00,,---,0.00,VWS V14.01,2013-02-13 13:19:00,
2013-02-13 05:24:00,18.5,6.6,23.65,WSW,248,0.0,2.0,59,0.00,,---,0.00,VWS V14.01,2013-02-13 13:24:00,
2013-02-13 05:29:00,18.5,6.6,23.65,NNE,22,2.2,2.5,59,0.00,,---,0.00,VWS V14.01,2013-02-13 13:29:00,
2013-02-13 05:34:00,18.5,6.9,23.65,NNW,338,0.0,0.0,60,0.00,,---,0.00,VWS V14.01,2013-02-13 13:34:00,
2013-02-13 05:39:00,18.5,6.9,23.65,NNE,22,0.0,1.1,60,0.00,,---,0.00,VWS V14.01,2013-02-13 13:39:00,
2013-02-13 05:44:00,18.3,6.4,23.65,SSW,202,0.0,1.1,59,0.00,,---,0.00,VWS V14.01,2013-02-13 13:44:00,
2013-02-13 05:49:00,18.1,6.2,23.65,SSW,202,1.1,2.2,59,0.00,,---,0.00,VWS V14.01,2013-02-13 13:49:00,
2013-02-13 05:54:00,17.8,5.9,23.65,NNW,338,0.0,0.0,59,0.00,,---,0.00,VWS V14.01,2013-02-13 13:54:00,
2013-02-13 05:59:00,18.0,6.1,23.65,NNE,22,2.7,2.9,59,0.00,,---,0.00,VWS V14.01,2013-02-13 13:59:00,
2013-02-13 06:04:00,18.9,7.7,23.65,NNE,22,3.6,4.0,61,0.00,,---,0.00,VWS V14.01,2013-02-13 14:04:00,
2013-02-13 06:09:00,20.3,9.4,23.65,NNE,22,3.4,6.0,62,0.00,,---,0.00,VWS V14.01,2013-02-13 14:09:00,
2013-02-13 06:14:00,22.6,11.6,23.65,WSW,248,2.7,2.7,62,0.00,,---,0.00,VWS V14.01,2013-02-13 14:14:00,
2013-02-13 06:19:00,21.9,9.4,23.65,NNE,22,2.2,2.7,58,0.00,,---,0.00,VWS V14.01,2013-02-13 14:19:00,
2013-02-13 06:24:00,21.2,8.4,23.65,West,270,0.0,1.6,57,0.00,,---,0.00,VWS V14.01,2013-02-13 14:24:00,
2013-02-13 06:29:00,20.3,7.1,23.65,SSW,202,1.3,1.3,56,0.00,,---,0.00,VWS V14.01,2013-02-13 14:29:00,
2013-02-13 06:34:00,19.9,6.8,23.65,NW,315,0.9,2.5,56,0.00,,---,0.00,VWS V14.01,2013-02-13 14:34:00,
2013-02-13 06:39:00,19.9,6.8,23.65,NNE,22,0.0,1.6,56,0.00,,---,0.00,VWS V14.01,2013-02-13 14:39:00,
2013-02-13 06:44:00,20.3,7.5,23.65,NNE,22,3.8,3.8,57,0.00,,---,0.00,VWS V14.01,2013-02-13 14:44:00,
2013-02-13 06:49:00,21.0,8.6,23.65,ENE,68,2.0,2.2,58,0.00,,---,0.00,VWS V14.01,2013-02-13 14:49:00,
2013-02-13 06:54:00,21.2,8.7,23.65,WSW,248,2.5,2.9,58,0.00,,---,0.00,VWS V14.01,2013-02-13 14:54:00,
2013-02-13 06:59:00,20.5,7.7,23.65,NNE,22,0.0,0.0,57,0.00,,---,0.00,VWS V14.01,2013-02-13 14:59:00,
2013-02-13 07:04:00,20.1,6.9,23.65,North,0,0.0,0.0,56,0.00,,---,0.00,VWS V14.01,2013-02-13 15:04:00,
2013-02-13 07:09:00,19.9,7.2,23.65,NNE,22,2.0,2.2,57,0.00,,---,0.00,VWS V14.01,2013-02-13 15:09:00,
2013-02-13 07:14:00,20.3,7.5,23.65,NNE,22,1.1,1.1,57,0.00,,---,0.00,VWS V14.01,2013-02-13 15:14:00,
2013-02-13 07:19:00,20.7,8.2,23.65,ENE,68,1.6,3.1,58,0.00,,---,0.00,VWS V14.01,2013-02-13 15:19:00,
2013-02-13 07:24:00,21.4,8.9,23.65,NE,45,2.9,3.1,58,0.00,,---,0.00,VWS V14.01,2013-02-13 15:24:00,
2013-02-13 07:29:00,23.7,11.9,23.65,NNE,22,2.9,2.9,60,0.00,,---,0.00,VWS V14.01,2013-02-13 15:29:00,
2013-02-13 07:34:00,26.1,13.7,23.68,NE,45,3.6,4.3,59,0.00,,---,0.00,VWS V14.01,2013-02-13 15:34:00,
2013-02-13 07:39:00,28.0,15.6,23.68,NNW,338,1.3,3.6,59,0.00,,---,0.00,VWS V14.01,2013-02-13 15:39:00,
2013-02-13 07:44:00,28.8,14.2,23.68,WNW,292,0.0,2.0,54,0.00,,---,0.00,VWS V14.01,2013-02-13 15:44:00,
2013-02-13 07:49:00,31.6,13.7,23.68,NNE,22,4.9,6.5,47,0.00,,---,0.00,VWS V14.01,2013-02-13 15:49:00,
2013-02-13 07:54:00,34.0,15.9,23.68,NNE,22,2.2,4.0,47,0.00,,---,0.00,VWS V14.01,2013-02-13 15:54:00,
2013-02-13 07:59:00,35.8,15.5,23.68,NE,45,2.7,4.0,43,0.00,,---,0.00,VWS V14.01,2013-02-13 15:59:00,
2013-02-13 08:04:00,36.9,15.9,23.68,NE,45,4.9,6.3,42,0.00,,---,0.00,VWS V14.01,2013-02-13 16:04:00,
2013-02-13 08:09:00,37.6,16.6,23.68,NE,45,3.1,3.1,42,0.00,,---,0.00,VWS V14.01,2013-02-13 16:09:00,
2013-02-13 08:14:00,38.7,16.4,23.68,SW,225,2.7,3.8,40,0.00,,---,0.00,VWS V14.01,2013-02-13 16:14:00,
2013-02-13 08:19:00,38.3,16.7,23.68,South,180,2.0,2.5,41,0.00,,---,0.00,VWS V14.01,2013-02-13 16:19:00,
2013-02-13 08:24:00,38.8,16.6,23.68,SW,225,2.2,2.9,40,0.00,,---,0.00,VWS V14.01,2013-02-13 16:24:00,
2013-02-13 08:29:00,40.5,18.1,23.68,East,90,0.9,3.6,40,0.00,,---,0.00,VWS V14.01,2013-02-13 16:29:00,
2013-02-13 08:34:00,41.4,17.1,23.68,North,0,10.7,12.5,37,0.00,,---,0.00,VWS V14.01,2013-02-13 16:34:00,
2013-02-13 08:39:00,41.2,15.0,23.68,NNE,22,6.3,6.3,34,0.00,,---,0.00,VWS V14.01,2013-02-13 16:39:00,
2013-02-13 08:44:00,40.6,14.5,23.68,NNE,22,7.6,11.0,34,0.00,,---,0.00,VWS V14.01,2013-02-13 16:44:00,
2013-02-13 08:49:00,40.8,14.6,23.68,North,0,6.5,13.0,34,0.00,,---,0.00,VWS V14.01,2013-02-13 16:49:00,
2013-02-13 08:54:00,41.0,14.1,23.68,NNW,338,3.8,7.4,33,0.00,,---,0.00,VWS V14.01,2013-02-13 16:54:00,
2013-02-13 08:59:00,41.4,15.1,23.68,NNE,22,4.3,4.3,34,0.00,,---,0.00,VWS V14.01,2013-02-13 16:59:00,
2013-02-13 09:04:00,41.7,14.8,23.68,NNW,338,4.7,9.8,33,0.00,,---,0.00,VWS V14.01,2013-02-13 17:04:00,
2013-02-13 09:09:00,41.2,13.6,23.68,NNW,338,2.9,6.0,32,0.00,,---,0.00,VWS V14.01,2013-02-13 17:09:00,
2013-02-13 09:14:00,41.2,12.9,23.68,NNE,22,2.9,6.5,31,0.00,,---,0.00,VWS V14.01,2013-02-13 17:14:00,
2013-02-13 09:19:00,41.5,13.2,23.68,NE,45,4.0,4.7,31,0.00,,---,0.00,VWS V14.01,2013-02-13 17:19:00,
2013-02-13 09:24:00,41.7,13.3,23.68,North,0,6.0,6.0,31,0.00,,---,0.00,VWS V14.01,2013-02-13 17:24:00,
2013-02-13 09:29:00,42.1,14.4,23.68,NNW,338,4.7,5.4,32,0.00,,---,0.00,VWS V14.01,2013-02-13 17:29:00,
2013-02-13 09:34:00,42.4,14.0,23.68,NNW,338,3.1,4.3,31,0.00,,---,0.00,VWS V14.01,2013-02-13 17:34:00,
2013-02-13 09:39:00,42.4,14.0,23.68,NE,45,6.0,6.0,31,0.00,,---,0.00,VWS V14.01,2013-02-13 17:39:00,
2013-02-13 09:44:00,42.4,14.0,23.68,NE,45,7.6,8.5,31,0.00,,---,0.00,VWS V14.01,2013-02-13 17:44:00,
2013-02-13 09:49:00,42.3,13.8,23.68,NNE,22,5.6,5.8,31,0.00,,---,0.00,VWS V14.01,2013-02-13 17:49:00,
2013-02-13 09:54:00,42.8,13.5,23.68,East,90,4.9,6.0,30,0.00,,---,0.00,VWS V14.01,2013-02-13 17:54:00,
2013-02-13 09:59:00,42.4,13.2,23.68,NE,45,4.3,5.4,30,0.00,,---,0.00,VWS V14.01,2013-02-13 17:59:00,
2013-02-13 10:04:00,42.6,13.4,23.68,NE,45,4.3,4.7,30,0.00,,---,0.00,VWS V14.01,2013-02-13 18:04:00,
2013-02-13 10:09:00,43.0,13.7,23.68,SE,135,3.6,3.6,30,0.00,,---,0.00,VWS V14.01,2013-02-13 18:09:00,
2013-02-13 10:14:00,44.1,15.4,23.68,NNE,22,1.1,3.8,31,0.00,,---,0.00,VWS V14.01,2013-02-13 18:14:00,
2013-02-13 10:19:00,43.7,14.3,23.71,WSW,248,1.1,6.0,30,0.00,,---,0.00,VWS V14.01,2013-02-13 18:19:00,
2013-02-13 10:24:00,43.7,14.3,23.71,ENE,68,5.4,6.3,30,0.00,,---,0.00,VWS V14.01,2013-02-13 18:24:00,
2013-02-13 10:29:00,43.7,14.3,23.71,NE,45,5.6,6.0,30,0.00,,---,0.00,VWS V14.01,2013-02-13 18:29:00,
2013-02-13 10:34:00,44.2,14.8,23.71,NNE,22,4.7,6.5,30,0.00,,---,0.00,VWS V14.01,2013-02-13 18:34:00,
2013-02-13 10:39:00,43.5,14.2,23.71,NE,45,8.1,8.1,30,0.00,,---,0.00,VWS V14.01,2013-02-13 18:39:00,
2013-02-13 10:44:00,44.6,15.1,23.71,NNE,22,5.8,5.8,30,0.00,,---,0.00,VWS V14.01,2013-02-13 18:44:00,
2013-02-13 10:49:00,45.0,15.4,23.71,ENE,68,5.6,5.6,30,0.00,,---,0.00,VWS V14.01,2013-02-13 18:49:00,
2013-02-13 10:54:00,44.1,14.6,23.71,NNE,22,5.8,7.4,30,0.00,,---,0.00,VWS V14.01,2013-02-13 18:54:00,
2013-02-13 10:59:00,44.2,14.8,23.71,NNE,22,3.6,7.6,30,0.00,,---,0.00,VWS V14.01,2013-02-13 18:59:00,
2013-02-13 11:04:00,44.2,14.8,23.68,NW,315,2.9,4.0,30,0.00,,---,0.00,VWS V14.01,2013-02-13 19:04:00,
2013-02-13 11:09:00,43.9,14.5,23.68,NNE,22,3.8,6.5,30,0.00,,---,0.00,VWS V14.01,2013-02-13 19:09:00,
2013-02-13 11:14:00,44.1,14.6,23.68,NNE,22,2.5,5.4,30,0.00,,---,0.00,VWS V14.01,2013-02-13 19:14:00,
2013-02-13 11:19:00,44.4,14.9,23.68,NNE,22,2.9,3.4,30,0.00,,---,0.00,VWS V14.01,2013-02-13 19:19:00,
2013-02-13 11:24:00,43.9,14.5,23.68,NE,45,3.6,6.0,30,0.00,,---,0.00,VWS V14.01,2013-02-13 19:24:00,
2013-02-13 11:29:00,44.2,14.8,23.68,NNW,338,7.6,10.7,30,0.00,,---,0.00,VWS V14.01,2013-02-13 19:29:00,
2013-02-13 11:34:00,44.2,14.8,23.68,ENE,68,5.4,5.4,30,0.00,,---,0.00,VWS V14.01,2013-02-13 19:34:00,
2013-02-13 11:39:00,43.9,14.5,23.68,NNE,22,5.4,6.0,30,0.00,,---,0.00,VWS V14.01,2013-02-13 19:39:00,
2013-02-13 11:44:00,43.3,14.0,23.68,North,0,3.6,6.0,30,0.00,,---,0.00,VWS V14.01,2013-02-13 19:44:00,
2013-02-13 11:49:00,43.3,14.0,23.68,NNE,22,3.8,4.9,30,0.00,,---,0.00,VWS V14.01,2013-02-13 19:49:00,
2013-02-13 11:54:00,43.0,13.7,23.68,NNE,22,5.8,5.8,30,0.00,,---,0.00,VWS V14.01,2013-02-13 19:54:00,
2013-02-13 11:59:00,43.2,13.8,23.68,North,0,2.9,6.3,30,0.00,,---,0.00,VWS V14.01,2013-02-13 19:59:00,
2013-02-13 12:04:00,43.3,14.0,23.68,North,0,3.8,7.4,30,0.00,,---,0.00,VWS V14.01,2013-02-13 20:04:00,
2013-02-13 12:09:00,43.3,14.0,23.68,ENE,68,5.4,7.2,30,0.00,,---,0.00,VWS V14.01,2013-02-13 20:09:00,
2013-02-13 12:14:00,43.7,14.3,23.68,NNE,22,8.5,8.5,30,0.00,,---,0.00,VWS V14.01,2013-02-13 20:14:00,
2013-02-13 12:19:00,44.2,15.5,23.65,NNE,22,2.5,3.4,31,0.00,,---,0.00,VWS V14.01,2013-02-13 20:19:00,
2013-02-13 12:24:00,44.4,15.7,23.65,South,180,1.6,1.6,31,0.00,,---,0.00,VWS V14.01,2013-02-13 20:24:00,
2013-02-13 12:29:00,44.6,15.1,23.65,ENE,68,4.7,4.9,30,0.00,,---,0.00,VWS V14.01,2013-02-13 20:29:00,
2013-02-13 12:34:00,45.0,15.4,23.65,NNE,22,1.6,1.6,30,0.00,,---,0.00,VWS V14.01,2013-02-13 20:34:00,
2013-02-13 12:40:00,44.1,14.6,23.65,East,90,4.3,8.5,30,0.00,,---,0.00,VWS V14.01,2013-02-13 20:40:00,
2013-02-13 12:45:00,43.3,14.8,23.65,North,0,6.0,6.0,31,0.00,,---,0.00,VWS V14.01,2013-02-13 20:45:00,
2013-02-13 12:50:00,43.7,15.1,23.65,NNE,22,8.5,8.5,31,0.00,,---,0.00,VWS V14.01,2013-02-13 20:50:00,
2013-02-13 12:55:00,43.3,14.8,23.65,NNE,22,6.0,10.3,31,0.00,,---,0.00,VWS V14.01,2013-02-13 20:55:00,
2013-02-13 13:00:00,42.6,14.1,23.65,North,0,2.7,5.8,31,0.00,,---,0.00,VWS V14.01,2013-02-13 21:00:00,
2013-02-13 13:05:00,43.2,14.6,23.65,NNE,22,3.1,5.6,31,0.00,,---,0.00,VWS V14.01,2013-02-13 21:05:00,
2013-02-13 13:10:00,43.3,14.8,23.65,NE,45,5.4,5.4,31,0.00,,---,0.00,VWS V14.01,2013-02-13 21:10:00,
2013-02-13 13:15:00,42.8,14.3,23.65,NNE,22,4.9,4.9,31,0.00,,---,0.00,VWS V14.01,2013-02-13 21:15:00,
2013-02-13 13:20:00,42.6,14.8,23.65,North,0,3.6,5.6,32,0.00,,---,0.00,VWS V14.01,2013-02-13 21:20:00,
2013-02-13 13:25:00,43.0,14.4,23.65,NE,45,2.5,4.3,31,0.00,,---,0.00,VWS V14.01,2013-02-13 21:25:00,
2013-02-13 13:30:00,42.4,14.7,23.65,NNE,22,7.4,7.4,32,0.00,,---,0.00,VWS V14.01,2013-02-13 21:30:00,
2013-02-13 13:35:00,42.6,14.8,23.65,NE,45,4.5,4.5,32,0.00,,---,0.00,VWS V14.01,2013-02-13 21:35:00,
2013-02-13 13:40:00,42.3,14.5,23.65,ENE,68,3.4,4.0,32,0.00,,---,0.00,VWS V14.01,2013-02-13 21:40:00,
2013-02-13 13:45:00,42.3,14.5,23.65,NNW,338,4.0,7.6,32,0.00,,---,0.00,VWS V14.01,2013-02-13 21:45:00,
2013-02-13 13:50:00,42.3,14.5,23.62,NNW,338,6.0,6.0,32,0.00,,---,0.00,VWS V14.01,2013-02-13 21:50:00,
2013-02-13 13:55:00,42.3,14.5,23.62,NNE,22,6.0,7.4,32,0.00,,---,0.00,VWS V14.01,2013-02-13 21:55:00,
2013-02-13 14:00:00,42.1,14.4,23.62,NNE,22,8.7,9.6,32,0.00,,---,0.00,VWS V14.01,2013-02-13 22:00:00,
2013-02-13 14:05:00,42.1,14.4,23.62,North,0,5.4,5.6,32,0.00,,---,0.00,VWS V14.01,2013-02-13 22:05:00,
2013-02-13 14:10:00,42.3,14.5,23.62,NNE,22,1.6,5.8,32,0.00,,---,0.00,VWS V14.01,2013-02-13 22:10:00,
2013-02-13 14:15:00,42.3,14.5,23.62,NW,315,4.9,5.4,32,0.00,,---,0.00,VWS V14.01,2013-02-13 22:15:00,
2013-02-13 14:20:00,42.4,14.7,23.62,NE,45,5.4,5.4,32,0.00,,---,0.00,VWS V14.01,2013-02-13 22:20:00,
2013-02-13 14:26:00,42.3,14.5,23.62,ENE,68,3.8,4.9,32,0.00,,---,0.00,VWS V14.01,2013-02-13 22:26:00,
2013-02-13 14:31:00,42.4,14.7,23.62,NNE,22,6.5,6.5,32,0.00,,---,0.00,VWS V14.01,2013-02-13 22:31:00,
2013-02-13 14:37:00,42.8,15.0,23.62,North,0,4.7,6.3,32,0.00,,---,0.00,VWS V14.01,2013-02-13 22:37:00,
2013-02-13 14:42:00,43.0,14.4,23.62,NE,45,3.8,7.2,31,0.00,,---,0.00,VWS V14.01,2013-02-13 22:42:00,
2013-02-13 14:47:00,43.2,15.3,23.62,NNE,22,4.3,4.3,32,0.00,,---,0.00,VWS V14.01,2013-02-13 22:47:00,
2013-02-13 14:52:00,43.3,15.5,23.62,North,0,4.0,6.0,32,0.00,,---,0.00,VWS V14.01,2013-02-13 22:52:00,
2013-02-13 14:57:00,43.5,15.6,23.62,NNW,338,4.9,5.8,32,0.00,,---,0.00,VWS V14.01,2013-02-13 22:57:00,
2013-02-13 15:02:00,43.5,15.6,23.62,NNW,338,3.1,7.2,32,0.00,,---,0.00,VWS V14.01,2013-02-13 23:02:00,
2013-02-13 15:07:00,43.5,15.6,23.65,NNE,22,3.1,6.5,32,0.00,,---,0.00,VWS V14.01,2013-02-13 23:07:00,
2013-02-13 15:12:00,43.7,15.8,23.65,North,0,3.6,4.7,32,0.00,,---,0.00,VWS V14.01,2013-02-13 23:12:00,
2013-02-13 15:17:00,43.7,15.8,23.65,North,0,7.6,7.6,32,0.00,,---,0.00,VWS V14.01,2013-02-13 23:17:00,
2013-02-13 15:22:00,43.7,15.1,23.62,NNE,22,2.0,7.8,31,0.00,,---,0.00,VWS V14.01,2013-02-13 23:22:00,
2013-02-13 15:27:00,43.5,14.9,23.62,North,0,5.4,7.4,31,0.00,,---,0.00,VWS V14.01,2013-02-13 23:27:00,
2013-02-13 15:32:00,43.3,15.5,23.62,NNW,338,4.3,7.8,32,0.00,,---,0.00,VWS V14.01,2013-02-13 23:32:00,
2013-02-13 15:37:00,43.3,14.8,23.62,NNE,22,7.4,7.4,31,0.00,,---,0.00,VWS V14.01,2013-02-13 23:37:00,
2013-02-13 15:43:00,42.8,14.3,23.62,NNE,22,6.0,7.6,31,0.00,,---,0.00,VWS V14.01,2013-02-13 23:43:00,
2013-02-13 15:48:00,42.4,14.7,23.62,North,0,3.6,5.4,32,0.00,,---,0.00,VWS V14.01,2013-02-13 23:48:00,
2013-02-13 15:53:00,42.3,14.5,23.62,NNE,22,3.6,6.0,32,0.00,,---,0.00,VWS V14.01,2013-02-13 23:53:00,
2013-02-13 15:58:00,42.3,14.5,23.62,North,0,5.8,5.8,32,0.00,,---,0.00,VWS V14.01,2013-02-13 23:58:00,
2013-02-13 16:03:00,42.1,14.4,23.62,North,0,4.0,6.0,32,0.00,,---,0.00,VWS V14.01,2013-02-14 00:03:00,
2013-02-13 16:08:00,41.7,14.1,23.62,NNW,338,4.9,5.8,32,0.00,,---,0.00,VWS V14.01,2013-02-14 00:08:00,
2013-02-13 16:13:00,41.5,13.9,23.62,NNE,22,4.9,4.9,32,0.00,,---,0.00,VWS V14.01,2013-02-14 00:13:00,
2013-02-13 16:18:00,41.2,13.6,23.62,NE,45,3.8,5.6,32,0.00,,---,0.00,VWS V14.01,2013-02-14 00:18:00,
2013-02-13 16:23:00,40.8,14.0,23.62,North,0,5.8,7.8,33,0.00,,---,0.00,VWS V14.01,2013-02-14 00:23:00,
2013-02-13 16:28:00,40.5,13.6,23.62,NNW,338,6.5,6.5,33,0.00,,---,0.00,VWS V14.01,2013-02-14 00:28:00,
2013-02-13 16:33:00,40.3,13.5,23.62,NNW,338,6.9,6.9,33,0.00,,---,0.00,VWS V14.01,2013-02-14 00:33:00,
2013-02-13 16:38:00,39.9,13.2,23.62,North,0,3.1,3.8,33,0.00,,---,0.00,VWS V14.01,2013-02-14 00:38:00,
2013-02-13 16:43:00,39.7,13.0,23.62,NNE,22,3.8,4.9,33,0.00,,---,0.00,VWS V14.01,2013-02-14 00:43:00,
2013-02-13 16:48:00,39.4,12.7,23.62,North,0,3.8,3.8,33,0.00,,---,0.00,VWS V14.01,2013-02-14 00:48:00,
2013-02-13 16:53:00,39.2,12.5,23.62,North,0,2.9,3.8,33,0.00,,---,0.00,VWS V14.01,2013-02-14 00:53:00,
2013-02-13 16:58:00,38.8,12.9,23.62,NNW,338,3.4,4.3,34,0.00,,---,0.00,VWS V14.01,2013-02-14 00:58:00,
2013-02-13 17:03:00,38.7,12.7,23.62,NE,45,2.0,3.8,34,0.00,,---,0.00,VWS V14.01,2013-02-14 01:03:00,
2013-02-13 17:08:00,38.5,12.6,23.62,NNE,22,2.0,3.4,34,0.00,,---,0.00,VWS V14.01,2013-02-14 01:08:00,
2013-02-13 17:13:00,38.3,13.1,23.62,NNW,338,2.5,2.9,35,0.00,,---,0.00,VWS V14.01,2013-02-14 01:13:00,
2013-02-13 17:18:00,37.9,12.7,23.62,North,0,2.7,2.7,35,0.00,,---,0.00,VWS V14.01,2013-02-14 01:18:00,
2013-02-13 17:23:00,37.0,12.6,23.62,North,0,0.9,2.0,36,0.00,,---,0.00,VWS V14.01,2013-02-14 01:23:00,
2013-02-13 17:28:00,36.1,12.4,23.62,NNW,338,2.9,3.4,37,0.00,,---,0.00,VWS V14.01,2013-02-14 01:28:00,
2013-02-13 17:33:00,35.8,12.1,23.62,NNW,338,1.3,1.3,37,0.00,,---,0.00,VWS V14.01,2013-02-14 01:33:00,
2013-02-13 17:38:00,35.2,12.8,23.62,NNW,338,2.0,2.0,39,0.00,,---,0.00,VWS V14.01,2013-02-14 01:38:00,
2013-02-13 17:43:00,34.7,12.9,23.62,North,0,2.5,2.5,40,0.00,,---,0.00,VWS V14.01,2013-02-14 01:43:00,
2013-02-13 17:48:00,34.2,12.4,23.62,NNE,22,2.0,2.0,40,0.00,,---,0.00,VWS V14.01,2013-02-14 01:48:00,
2013-02-13 17:53:00,33.8,12.1,23.62,NNW,338,0.9,1.6,40,0.00,,---,0.00,VWS V14.01,2013-02-14 01:53:00,
2013-02-13 17:58:00,33.4,12.3,23.62,WSW,248,0.0,0.0,41,0.00,,---,0.00,VWS V14.01,2013-02-14 01:58:00,
2013-02-13 18:03:00,32.9,12.3,23.62,NNW,338,1.6,1.6,42,0.00,,---,0.00,VWS V14.01,2013-02-14 02:03:00,
2013-02-13 18:08:00,32.2,12.2,23.62,NNE,22,2.0,2.2,43,0.00,,---,0.00,VWS V14.01,2013-02-14 02:08:00,
2013-02-13 18:13:00,31.3,11.4,23.62,NNE,22,1.3,1.6,43,0.00,,---,0.00,VWS V14.01,2013-02-14 02:13:00,
2013-02-13 18:18:00,30.9,11.6,23.62,NNE,22,0.0,0.0,44,0.00,,---,0.00,VWS V14.01,2013-02-14 02:18:00,
2013-02-13 18:23:00,30.4,11.1,23.62,NNE,22,0.0,0.0,44,0.00,,---,0.00,VWS V14.01,2013-02-14 02:23:00,
2013-02-13 18:28:00,29.8,11.6,23.62,NNE,22,1.6,2.2,46,0.00,,---,0.00,VWS V14.01,2013-02-14 02:28:00,
2013-02-13 18:33:00,29.5,11.8,23.62,ESE,112,2.0,2.0,47,0.00,,---,0.00,VWS V14.01,2013-02-14 02:33:00,
2013-02-13 18:39:00,29.8,13.5,23.62,South,180,0.9,1.6,50,0.00,,---,0.00,VWS V14.01,2013-02-14 02:39:00,
2013-02-13 18:44:00,29.3,12.1,23.62,ESE,112,0.0,1.6,48,0.00,,---,0.00,VWS V14.01,2013-02-14 02:44:00,
2013-02-13 18:49:00,29.3,12.5,23.65,SE,135,0.0,0.0,49,0.00,,---,0.00,VWS V14.01,2013-02-14 02:49:00,
2013-02-13 18:54:00,28.8,12.5,23.65,SE,135,0.0,0.0,50,0.00,,---,0.00,VWS V14.01,2013-02-14 02:54:00,
2013-02-13 19:00:00,28.2,12.0,23.65,ESE,112,0.0,0.0,50,0.00,,---,0.00,VWS V14.01,2013-02-14 03:00:00,
2013-02-13 19:05:00,27.9,12.1,23.65,NNE,22,0.0,1.1,51,0.00,,---,0.00,VWS V14.01,2013-02-14 03:05:00,
2013-02-13 19:10:00,27.7,12.4,23.65,NNE,22,0.0,0.0,52,0.00,,---,0.00,VWS V14.01,2013-02-14 03:10:00,
2013-02-13 19:15:00,27.1,11.9,23.65,NNE,22,0.0,0.0,52,0.00,,---,0.00,VWS V14.01,2013-02-14 03:15:00,
2013-02-13 19:21:00,26.8,11.5,23.65,NNE,22,0.9,1.6,52,0.00,,---,0.00,VWS V14.01,2013-02-14 03:21:00,
2013-02-13 19:26:00,26.6,11.8,23.65,NNE,22,0.0,0.0,53,0.00,,---,0.00,VWS V14.01,2013-02-14 03:26:00,
2013-02-13 19:31:00,26.4,11.6,23.65,WSW,248,0.0,0.0,53,0.00,,---,0.00,VWS V14.01,2013-02-14 03:31:00,
2013-02-13 19:36:00,26.2,11.4,23.65,NNE,22,1.1,1.1,53,0.00,,---,0.00,VWS V14.01,2013-02-14 03:36:00,
2013-02-13 19:42:00,26.1,11.7,23.65,NE,45,1.1,1.6,54,0.00,,---,0.00,VWS V14.01,2013-02-14 03:42:00,
2013-02-13 19:47:00,26.1,11.7,23.65,SSW,202,0.0,0.0,54,0.00,,---,0.00,VWS V14.01,2013-02-14 03:47:00,
2013-02-13 19:53:00,26.1,12.1,23.65,SE,135,0.0,0.0,55,0.00,,---,0.00,VWS V14.01,2013-02-14 03:53:00,
2013-02-13 19:58:00,25.9,11.9,23.65,ENE,68,0.0,0.0,55,0.00,,---,0.00,VWS V14.01,2013-02-14 03:58:00,
2013-02-13 20:03:00,25.5,11.6,23.65,ENE,68,0.9,2.0,55,0.00,,---,0.00,VWS V14.01,2013-02-14 04:03:00,
2013-02-13 20:08:00,25.3,11.4,23.65,NE,45,1.1,2.0,55,0.00,,---,0.00,VWS V14.01,2013-02-14 04:08:00,
2013-02-13 20:13:00,25.3,11.4,23.65,NE,45,0.0,0.0,55,0.00,,---,0.00,VWS V14.01,2013-02-14 04:13:00,
2013-02-13 20:18:00,25.0,11.5,23.65,NE,45,0.0,0.0,56,0.00,,---,0.00,VWS V14.01,2013-02-14 04:18:00,
2013-02-13 20:24:00,24.6,11.6,23.65,ENE,68,1.3,2.0,57,0.00,,---,0.00,VWS V14.01,2013-02-14 04:24:00,
2013-02-13 20:29:00,24.6,11.6,23.65,South,180,0.0,0.0,57,0.00,,---,0.00,VWS V14.01,2013-02-14 04:29:00,
2013-02-13 20:34:00,24.6,12.0,23.65,WSW,248,1.6,1.6,58,0.00,,---,0.00,VWS V14.01,2013-02-14 04:34:00,
2013-02-13 20:39:00,24.4,11.8,23.65,WSW,248,1.6,1.6,58,0.00,,---,0.00,VWS V14.01,2013-02-14 04:39:00,
2013-02-13 20:45:00,24.1,11.8,23.65,WSW,248,0.0,0.0,59,0.00,,---,0.00,VWS V14.01,2013-02-14 04:45:00,
2013-02-13 20:50:00,23.7,11.5,23.65,WSW,248,0.0,0.0,59,0.00,,---,0.00,VWS V14.01,2013-02-14 04:50:00,
2013-02-13 20:55:00,23.5,11.3,23.65,East,90,0.0,0.0,59,0.00,,---,0.00,VWS V14.01,2013-02-14 04:55:00,
2013-02-13 21:00:00,23.2,11.0,23.65,East,90,0.0,0.0,59,0.00,,---,0.00,VWS V14.01,2013-02-14 05:00:00,
2013-02-13 21:01:00,23.2,11.0,23.65,East,90,0.0,0.0,59,0.00,,---,0.00,VWS V14.01,2013-02-14 05:01:00,
2013-02-13 21:03:00,23.0,10.8,23.65,East,90,0.0,0.0,59,0.00,,---,0.00,VWS V14.01,2013-02-14 05:03:00,
2013-02-13 21:07:00,22.8,11.0,23.65,East,90,0.0,0.0,60,0.00,,---,0.00,VWS V14.01,2013-02-14 05:07:00,
2013-02-13 21:12:00,22.8,11.4,23.65,ENE,68,0.0,0.0,61,0.00,,---,0.00,VWS V14.01,2013-02-14 05:12:00,
2013-02-13 21:17:00,22.6,11.2,23.65,East,90,0.0,0.0,61,0.00,,---,0.00,VWS V14.01,2013-02-14 05:17:00,
2013-02-13 21:22:00,22.6,11.2,23.65,ENE,68,0.0,0.0,61,0.00,,---,0.00,VWS V14.01,2013-02-14 05:22:00,
2013-02-13 21:27:00,22.6,11.6,23.65,East,90,0.0,0.0,62,0.00,,---,0.00,VWS V14.01,2013-02-14 05:27:00,
2013-02-13 21:32:00,22.6,11.6,23.65,WSW,248,0.0,0.0,62,0.00,,---,0.00,VWS V14.01,2013-02-14 05:32:00,
2013-02-13 21:37:00,22.5,11.8,23.68,NNE,22,2.2,2.5,63,0.00,,---,0.00,VWS V14.01,2013-02-14 05:37:00,
2013-02-13 21:42:00,22.5,12.1,23.68,South,180,1.3,1.3,64,0.00,,---,0.00,VWS V14.01,2013-02-14 05:42:00,
2013-02-13 21:48:00,22.3,11.6,23.68,NE,45,2.0,2.0,63,0.00,,---,0.00,VWS V14.01,2013-02-14 05:48:00,
2013-02-13 21:53:00,22.1,11.8,23.68,ENE,68,0.0,0.0,64,0.00,,---,0.00,VWS V14.01,2013-02-14 05:53:00,
2013-02-13 21:58:00,22.1,11.4,23.68,East,90,1.3,1.6,63,0.00,,---,0.00,VWS V14.01,2013-02-14 05:58:00,
2013-02-13 22:03:00,21.9,11.6,23.68,NNE,22,0.0,0.0,64,0.00,,---,0.00,VWS V14.01,2013-02-14 06:03:00,
2013-02-13 22:09:00,21.7,11.8,23.68,ENE,68,2.5,2.7,65,0.00,,---,0.00,VWS V14.01,2013-02-14 06:09:00,
2013-02-13 22:14:00,21.9,12.3,23.68,NNE,22,0.9,1.3,66,0.00,,---,0.00,VWS V14.01,2013-02-14 06:14:00,
2013-02-13 22:20:00,21.9,12.3,23.68,ENE,68,0.0,0.0,66,0.00,,---,0.00,VWS V14.01,2013-02-14 06:20:00,
2013-02-13 22:25:00,21.9,12.0,23.68,WSW,248,3.1,3.1,65,0.00,,---,0.00,VWS V14.01,2013-02-14 06:25:00,
2013-02-13 22:30:00,21.9,12.3,23.68,West,270,1.3,1.3,66,0.00,,---,0.00,VWS V14.01,2013-02-14 06:30:00,
2013-02-13 22:35:00,21.7,12.1,23.68,NE,45,0.0,0.0,66,0.00,,---,0.00,VWS V14.01,2013-02-14 06:35:00,
2013-02-13 22:40:00,21.6,12.0,23.68,NE,45,0.0,0.0,66,0.00,,---,0.00,VWS V14.01,2013-02-14 06:40:00,
2013-02-13 22:45:00,21.6,12.3,23.68,SW,225,0.0,0.0,67,0.00,,---,0.00,VWS V14.01,2013-02-14 06:45:00,
2013-02-13 22:51:00,21.4,12.1,23.68,East,90,1.6,1.6,67,0.00,,---,0.00,VWS V14.01,2013-02-14 06:51:00,
2013-02-13 22:56:00,21.6,12.6,23.68,North,0,0.0,1.6,68,0.00,,---,0.00,VWS V14.01,2013-02-14 06:56:00,
2013-02-13 23:01:00,21.2,12.0,23.68,NNE,22,1.6,1.6,67,0.00,,---,0.00,VWS V14.01,2013-02-14 07:01:00,
2013-02-13 23:06:00,21.2,12.0,23.68,ESE,112,0.0,0.0,67,0.00,,---,0.00,VWS V14.01,2013-02-14 07:06:00,
2013-02-13 23:12:00,21.2,12.3,23.68,South,180,0.0,0.0,68,0.00,,---,0.00,VWS V14.01,2013-02-14 07:12:00,
2013-02-13 23:17:00,21.0,11.8,23.68,ENE,68,0.0,0.0,67,0.00,,---,0.00,VWS V14.01,2013-02-14 07:17:00,
2013-02-13 23:22:00,20.8,12.0,23.65,ENE,68,1.3,1.3,68,0.00,,---,0.00,VWS V14.01,2013-02-14 07:22:00,
2013-02-13 23:27:00,20.8,12.0,23.65,East,90,1.1,1.6,68,0.00,,---,0.00,VWS V14.01,2013-02-14 07:27:00,
2013-02-13 23:33:00,20.8,12.0,23.65,SW,225,2.5,2.5,68,0.00,,---,0.00,VWS V14.01,2013-02-14 07:33:00,
2013-02-13 23:38:00,20.7,12.1,23.65,WSW,248,2.5,2.5,69,0.00,,---,0.00,VWS V14.01,2013-02-14 07:38:00,
2013-02-13 23:43:00,20.5,12.3,23.65,NE,45,1.6,2.0,70,0.00,,---,0.00,VWS V14.01,2013-02-14 07:43:00,
2013-02-13 23:48:00,20.3,12.1,23.68,NNE,22,1.6,1.6,70,0.00,,---,0.00,VWS V14.01,2013-02-14 07:48:00,
2013-02-13 23:54:00,20.3,12.1,23.68,NE,45,0.0,0.0,70,0.00,,---,0.00,VWS V14.01,2013-02-14 07:54:00,
2013-02-13 23:59:00,20.3,12.1,23.68,WSW,248,2.5,2.5,70,0.00,,---,0.00,VWS V14.01,2013-02-14 07:59:00,